Hayden, ID

9:31 PM PDT on September 25, 2016 (GMT -0700)
Coeur D'Alene

Weather History for KCOE - July, 2013

Change the Weather History Date:

Monday, July 1, 2013

  Actual Average Record
Temperature  
Mean Temperature 79 °F -  
Max Temperature 96 °F 74 °F 96 °F (2013)
Min Temperature 62 °F 48 °F 41 °F (2010)
Cooling Degree Days 14    
Growing Degree Days 29 (Base 50)    
Moisture  
Dew Point 61 °F    
Average Humidity 56    
Maximum Humidity 83    
Minimum Humidity 30    
Precipitation  
Precipitation 0.00 in - - ()
Sea Level Pressure  
Sea Level Pressure 30.02 in    
Wind  
Wind Speed 9 mph (NE)    
Max Wind Speed 18 mph    
Max Gust Speed 24 mph    
Visibility 10 miles    
Events      
Averages and records for this station are not official NWS values.
T = Trace of Precipitation, MM = Missing Value Source: NWS Daily Summary

Daily Weather History Graph

Daily Weather History Graph

Search for Another Location

Airport or City:

Trip Planner

Search our weather history database for the weather conditions in past years. The results will help you decide how hot, cold, wet, or windy it might be!

Date:

Astronomy

Jul. 01, 2013 Rise Set
Actual Time 4:53 AM PDT 8:49 PM PDT
Civil Twilight 4:12 AM PDT 9:29 PM PDT
Nautical Twilight 3:16 AM PDT 10:25 PM PDT
Astronomical Twilight 1:48 AM PDT 11:52 PM PDT
Moon 12:42 AM PDT (7/1) 2:54 PM PDT (7/1)
Length of Visible Light 17h 17m
Length of Day
15h 56m
Waning Crescent, 34% of the Moon is Illuminated
Jul 1
Waning Crescent
Jul 8
New
Jul 15
First Quarter
Jul 22
Full
Jul 29
Last Quarter

Hourly Weather History & Observations

Time (PDT) Temp. Heat Index Dew Point Humidity Pressure Visibility Wind Dir Wind Speed Gust Speed Precip Events Conditions
12:15 AM 66.2 °F - 59.0 °F 78% 30.05 in 10.0 mi ENE 3.5 mph - N/A   Clear
12:35 AM 64.4 °F - 59.0 °F 83% 30.05 in 10.0 mi Calm Calm - N/A   Clear
12:55 AM 64.4 °F - 57.2 °F 77% 30.05 in 10.0 mi ENE 4.6 mph - N/A   Clear
1:15 AM 64.4 °F - 57.2 °F 77% 30.05 in 10.0 mi Calm Calm - N/A   Clear
1:35 AM 64.4 °F - 57.2 °F 77% 30.05 in 10.0 mi East 4.6 mph - N/A   Clear
1:55 AM 64.4 °F - 57.2 °F 77% 30.05 in 10.0 mi ENE 8.1 mph - N/A   Clear
2:15 AM 64.4 °F - 57.2 °F 77% 30.05 in 10.0 mi East 9.2 mph - N/A   Clear
2:35 AM 64.4 °F - 57.2 °F 77% 30.05 in 10.0 mi ENE 9.2 mph - N/A   Clear
2:55 AM 64.4 °F - 57.2 °F 77% 30.05 in 10.0 mi East 8.1 mph - N/A   Clear
3:15 AM 64.4 °F - 55.4 °F 73% 30.06 in 10.0 mi East 9.2 mph - N/A   Clear
3:35 AM 64.4 °F - 55.4 °F 73% 30.06 in 10.0 mi East 8.1 mph - N/A   Clear
3:55 AM 62.6 °F - 55.4 °F 77% 30.06 in 10.0 mi ENE 8.1 mph - N/A   Clear
4:15 AM 62.6 °F - 55.4 °F 77% 30.06 in 10.0 mi ENE 10.4 mph - N/A   Clear
4:35 AM 62.6 °F - 55.4 °F 77% 30.06 in 10.0 mi ENE 10.4 mph - N/A   Clear
4:55 AM 62.6 °F - 55.4 °F 77% 30.07 in 10.0 mi East 9.2 mph - N/A   Clear
5:15 AM 62.6 °F - 55.4 °F 77% 30.07 in 10.0 mi ENE 9.2 mph - N/A   Clear
5:35 AM 62.6 °F - 55.4 °F 77% 30.07 in 10.0 mi ENE 9.2 mph - N/A   Clear
5:55 AM 64.4 °F - 57.2 °F 77% 30.07 in 10.0 mi ENE 8.1 mph - N/A   Clear
6:15 AM 66.2 °F - 57.2 °F 73% 30.07 in 10.0 mi NE 11.5 mph - N/A   Clear
6:35 AM 68.0 °F - 57.2 °F 68% 30.07 in 10.0 mi NE 10.4 mph - N/A   Clear
6:55 AM 68.0 °F - 55.4 °F 64% 30.07 in 10.0 mi NE 13.8 mph 17.3 mph N/A   Clear
7:15 AM 69.8 °F - 55.4 °F 60% 30.07 in 10.0 mi NE 13.8 mph - N/A   Clear
7:35 AM 71.6 °F - 57.2 °F 60% 30.08 in 10.0 mi NNE 17.3 mph 20.7 mph N/A   Clear
7:55 AM 71.6 °F - 57.2 °F 60% 30.07 in 10.0 mi NE 13.8 mph 20.7 mph N/A   Clear
8:15 AM 73.4 °F - 59.0 °F 61% 30.07 in 10.0 mi NNE 16.1 mph 19.6 mph N/A   Clear
8:35 AM 73.4 °F - 59.0 °F 61% 30.06 in 10.0 mi NNE 18.4 mph 24.2 mph N/A   Clear
8:55 AM 75.2 °F - 60.8 °F 61% 30.06 in 10.0 mi NNE 17.3 mph - N/A   Clear
9:15 AM 75.2 °F - 60.8 °F 61% 30.06 in 10.0 mi NNE 17.3 mph - N/A   Clear
9:35 AM 78.8 °F - 60.8 °F 54% 30.06 in 10.0 mi NNE 15.0 mph - N/A   Clear
9:55 AM 80.6 °F 81.8 °F 62.6 °F 54% 30.06 in 10.0 mi North 16.1 mph - N/A   Clear
10:15 AM 80.6 °F 81.8 °F 62.6 °F 54% 30.06 in 10.0 mi North 16.1 mph - N/A   Clear
10:35 AM 82.4 °F 83.4 °F 62.6 °F 51% 30.06 in 10.0 mi North 16.1 mph 19.6 mph N/A   Clear
10:55 AM 84.2 °F 85.0 °F 62.6 °F 48% 30.06 in 10.0 mi NNE 15.0 mph - N/A   Clear
11:15 AM 84.2 °F 85.6 °F 64.4 °F 51% 30.05 in 10.0 mi NNE 15.0 mph 19.6 mph N/A   Clear
11:35 AM 86.0 °F 87.3 °F 64.4 °F 48% 30.05 in 10.0 mi NNE 16.1 mph 19.6 mph N/A   Clear
11:55 AM 87.8 °F 89.4 °F 64.4 °F 46% 30.04 in 10.0 mi NNE 15.0 mph - N/A   Clear
12:15 PM 87.8 °F 89.4 °F 64.4 °F 46% 30.03 in 10.0 mi NNE 16.1 mph 21.9 mph N/A   Clear
12:35 PM 89.6 °F 91.1 °F 64.4 °F 43% 30.03 in 10.0 mi NNE 16.1 mph - N/A   Clear
12:55 PM 89.6 °F 91.1 °F 64.4 °F 43% 30.03 in 10.0 mi NNE 13.8 mph - N/A   Clear
1:15 PM 91.4 °F 93.2 °F 64.4 °F 41% 30.02 in 10.0 mi NNE 13.8 mph - N/A   Clear
1:35 PM 91.4 °F 93.2 °F 64.4 °F 41% 30.02 in 10.0 mi North 13.8 mph - N/A   Clear
1:55 PM 93.2 °F 94.9 °F 64.4 °F 38% 30.01 in 10.0 mi NNE 15.0 mph - N/A   Clear
2:15 PM 93.2 °F 94.1 °F 62.6 °F 36% 30.01 in 10.0 mi NNE 13.8 mph - N/A   Clear
2:35 PM 93.2 °F 94.9 °F 64.4 °F 38% 30.01 in 10.0 mi NNE 12.7 mph - N/A   Clear
2:55 PM 93.2 °F 94.9 °F 64.4 °F 38% 30.01 in 10.0 mi NNE 12.7 mph - N/A   Clear
3:15 PM 95.0 °F 97.0 °F 64.4 °F 36% 30.00 in 10.0 mi NE 13.8 mph - N/A   Clear
3:35 PM 95.0 °F 96.0 °F 62.6 °F 34% 29.99 in 10.0 mi NNE 13.8 mph - N/A   Clear
3:55 PM 96.8 °F 98.0 °F 62.6 °F 32% 29.99 in 10.0 mi NNE 13.8 mph - N/A   Clear
4:15 PM 96.8 °F 97.1 °F 60.8 °F 30% 29.98 in 10.0 mi NNE 15.0 mph - N/A   Clear
4:35 PM 96.8 °F 97.1 °F 60.8 °F 30% 29.98 in 10.0 mi NNE 12.7 mph - N/A   Clear
4:55 PM 96.8 °F 97.1 °F 60.8 °F 30% 29.97 in 10.0 mi NNE 13.8 mph - N/A   Clear
5:15 PM 95.0 °F 96.0 °F 62.6 °F 34% 29.96 in 10.0 mi NNE 11.5 mph - N/A   Clear
5:35 PM 95.0 °F 96.0 °F 62.6 °F 34% 29.96 in 10.0 mi NNE 11.5 mph - N/A   Clear
5:55 PM 95.0 °F 96.0 °F 62.6 °F 34% 29.95 in 10.0 mi NNE 12.7 mph - N/A   Clear
6:15 PM 93.2 °F 94.1 °F 62.6 °F 36% 29.95 in 10.0 mi NNE 10.4 mph - N/A   Clear
6:35 PM 93.2 °F 94.9 °F 64.4 °F 38% 29.95 in 10.0 mi NNE 11.5 mph - N/A   Clear
6:55 PM 91.4 °F 93.2 °F 64.4 °F 41% 29.95 in 10.0 mi NNE 10.4 mph - N/A   Clear
7:15 PM 89.6 °F 91.1 °F 64.4 °F 43% 29.95 in 10.0 mi NNE 11.5 mph - N/A   Clear
7:35 PM 89.6 °F 90.1 °F 62.6 °F 40% 29.95 in 10.0 mi NNE 11.5 mph - N/A   Clear
7:55 PM 87.8 °F 88.5 °F 62.6 °F 43% 29.95 in 10.0 mi NNE 9.2 mph - N/A   Clear
8:15 PM 84.2 °F 85.6 °F 64.4 °F 51% 29.95 in 10.0 mi NE 5.8 mph - N/A   Clear
8:35 PM 84.2 °F 83.8 °F 59.0 °F 42% 29.95 in 10.0 mi NNE 9.2 mph - N/A   Clear
8:55 PM 82.4 °F 83.9 °F 64.4 °F 54% 29.95 in 10.0 mi NNE 8.1 mph - N/A   Clear
9:15 PM 82.4 °F 83.4 °F 62.6 °F 51% 29.95 in 10.0 mi NNE 10.4 mph - N/A   Clear
9:35 PM 80.6 °F 81.8 °F 62.6 °F 54% 29.96 in 10.0 mi NNE 8.1 mph - N/A   Clear
9:55 PM 80.6 °F 81.5 °F 60.8 °F 51% 29.96 in 10.0 mi NNE 10.4 mph - N/A   Clear
10:15 PM 78.8 °F - 60.8 °F 54% 29.96 in 10.0 mi ENE 9.2 mph - N/A   Clear
10:35 PM 75.2 °F - 60.8 °F 61% 29.97 in 10.0 mi ENE 9.2 mph - N/A   Clear
10:55 PM 75.2 °F - 60.8 °F 61% 29.97 in 10.0 mi East 6.9 mph - N/A   Clear
11:15 PM 73.4 °F - 60.8 °F 65% 29.97 in 10.0 mi ENE 5.8 mph - N/A   Clear
11:35 PM 73.4 °F - 60.8 °F 65% 29.97 in 10.0 mi East 6.9 mph - N/A   Clear
11:55 PM 71.6 °F - 60.8 °F 69% 29.97 in 10.0 mi East 5.8 mph - N/A   Clear